Flag for Norway Weather past 2 weeks in Vennesla, Norway

Now
57 °F

Low clouds.


Feels Like: 57 °F
Forecast: 55 / 64 °F
Wind: 5 mph from South

Location: Kristiansand / Kjevik

Current Time: Jul 8, 2015 at 12:09:41 AM

Latest Report: Jul 7, 2015 at 11:20 PM


Visibility: 4 mi

Pressure: 29.47 "Hg

Humidity: 100%

Dew point: 57 °F

Location of VenneslaLocation

Historic Weather in Vennesla — Graph

°F

Vennesla temperature yesterday

Maximum temperature yesterday: 63 °F (at 11:50 AM)
Minimum temperature yesterday: 54 °F (at 3:20 AM)
Average temperature yesterday: 57 °F

Past Weeks' High & Low Weather Summary

 TemperatureHumidityPressure
High75 °F (Jun 30, 6:20 PM)100% (Jun 23, 12:50 AM)30.30 "Hg (Jun 23, 12:50 AM)
Low46 °F (Jun 26, 4:50 AM)38% (Jul 1, 5:50 PM)29.50 "Hg (Jul 7, 9:50 PM)
Average60 °F74%29.98 "Hg
* Reported Jun 22 10:20 PM — Jul 7 10:20 PM, Vennesla, Weather by CustomWeather, © 2015

Note: Actual official high and low records may vary slightly from our data, if they occured in-between our weather recording intervals... More about our weather records

Advertising

Vennesla weather history for previous 24 hours

 ConditionsComfort  
Time TempWeatherWind HumidityBarometerVisibility
10:20 PM
Tue, Jul 7
57 °FPartly sunny.9 mph94%29.50 "Hg6 mi
9:50 PM57 °FDrizzle. Broken clouds.9 mph100%29.50 "Hg4 mi
9:20 PM57 °FDrizzle. Fog.10 mph100%29.53 "Hg3 mi
8:50 PM57 °FLight rain. Partly sunny.12 mph100%29.53 "Hg4 mi
8:20 PM59 °FDrizzle. Partly sunny.12 mph94%29.53 "Hg6 mi
7:50 PM59 °FLight rain. Partly sunny.10 mph94%29.56 "Hg4 mi
7:20 PM59 °FPartly sunny.7 mph94%29.56 "HgN/A
6:50 PM59 °FBroken clouds.8 mph94%29.59 "HgN/A
6:20 PM59 °FDrizzle. Partly sunny.6 mph94%29.62 "HgN/A
5:50 PM59 °FBroken clouds.8 mph94%29.62 "HgN/A
5:20 PM59 °FPartly sunny.6 mph94%29.65 "HgN/A
4:50 PM59 °FPartly sunny.7 mph94%29.65 "HgN/A
4:20 PM57 °FPartly sunny.6 mph94%29.68 "HgN/A
3:50 PM57 °FLight rain. Broken clouds.8 mph94%29.68 "Hg5 mi
3:20 PM57 °FDrizzle. Partly sunny.9 mph94%29.68 "Hg4 mi
2:50 PM59 °FPartly sunny.10 mph82%29.71 "HgN/A
2:20 PM59 °FPartly sunny.10 mph82%29.71 "HgN/A
1:50 PM59 °FLight rain. Broken clouds.13 mph88%29.71 "HgN/A
1:20 PM61 °FPartly sunny.12 mph77%29.71 "HgN/A
12:50 PM61 °FBroken clouds.13 mph77%29.74 "HgN/A
12:20 PM61 °FBroken clouds.15 mph77%29.74 "HgN/A
11:50 AM63 °FPartly sunny.12 mph68%29.74 "HgN/A
11:20 AM61 °FPassing clouds.14 mph68%29.74 "HgN/A
10:50 AM61 °FPassing clouds.12 mph72%29.74 "HgN/A
10:20 AM61 °FPartly sunny.8 mph68%29.74 "HgN/A
9:50 AM59 °FPartly sunny.10 mph68%29.77 "HgN/A
9:20 AM59 °FScattered clouds.8 mph63%29.77 "HgN/A
8:50 AM59 °FPassing clouds.9 mph68%29.77 "HgN/A
8:20 AM57 °FPassing clouds.10 mph67%29.77 "HgN/A
7:50 AM55 °FPassing clouds.12 mph72%29.77 "HgN/A
7:20 AM55 °FPassing clouds.12 mph72%29.80 "HgN/A
6:50 AM55 °FSunny.10 mph72%29.77 "Hg10 mi
6:20 AM54 °FSunny.9 mph77%29.80 "Hg10 mi
5:50 AM54 °FSunny.12 mph77%29.80 "Hg10 mi
5:20 AM54 °FPassing clouds.12 mph77%29.80 "HgN/A
4:50 AM54 °FPassing clouds.13 mph77%29.80 "HgN/A
4:20 AM54 °FPassing clouds.10 mph82%29.80 "HgN/A
3:50 AM54 °FPassing clouds.10 mph82%29.80 "HgN/A
3:20 AM54 °FPassing clouds.9 mph82%29.80 "HgN/A
2:50 AM55 °FPassing clouds.10 mph77%29.80 "HgN/A
2:20 AM55 °FPassing clouds.13 mph77%29.80 "HgN/A
1:50 AM55 °FPassing clouds.13 mph77%29.80 "HgN/A
1:20 AM55 °FOvercast.13 mph77%29.83 "HgN/A
12:50 AM55 °FPassing clouds.12 mph77%29.83 "HgN/A
12:20 AM55 °FPassing clouds.15 mph77%29.83 "HgN/A
Weather by CustomWeather, © 2015

See weather overviewHow to use our weather pages